Orbital Elements at Epoch 2459200.5 (2020-Dec-17.0) TDB
Reference: JPL 37 (heliocentric ecliptic J2000)
Element | Value | Uncertainty (1-sigma) | Units |
e | .1366039501684186 | 1.0558e-08 | |
a | 2.974386565767387 | 1.3958e-08 | au |
q | 2.568073611555685 | 2.8125e-08 | au |
i | 13.70398291215764 | 5.7439e-07 | deg |
node | 27.62195513372811 | 2.686e-06 | deg |
peri | 240.9846909487406 | 7.599e-06 | deg |
M | 38.70736443706662 | 7.3243e-06 | deg |
tp | 2458999.041477789816 (2020-May-29.54147779) | 3.7833e-05 | TDB |
period | 1873.676212535293 5.13 | 1.3189e-05 3.611e-08 | d yr |
n | .1921356516091325 | 1.3525e-09 | deg/d |
Q | 3.380699519979089 | 1.5865e-08 | au |
|
| | Orbit Determination Parameters
Additional Information
|